Bradshaw AFB, HI

10:44 AM HST on November 20, 2019 (GMT -1000)
Bradshaw Army Air Field

Weather History for PHSF - September, 2019

Change the Weather History Date:

Monday, September 2, 2019

  Actual Average Record
Temperature  
Mean Temperature 63 °F -  
Max Temperature 75 °F 70 °F 78 °F (2003)
Min Temperature 50 °F 51 °F 44 °F (2010)
Degree Days  
Heating Degree Days 2    
Growing Degree Days 13 (Base 50)    
Moisture  
Dew Point 54 °F    
Average Humidity 78    
Maximum Humidity 98    
Minimum Humidity 49    
Precipitation  
Precipitation 0.00 in - - ()
Sea Level Pressure  
Sea Level Pressure 29.94 in    
Wind  
Wind Speed 4 mph (SSE)    
Max Wind Speed 10 mph    
Max Gust Speed -    
Visibility 9 miles    
Events Rain    
Averages and records for this station are not official NWS values.
T = Trace of Precipitation, MM = Missing Value Source: NWS Daily Summary

Daily Weather History Graph

Daily Weather History Graph

Search for Another Location

Airport or City:

Astronomy

Sep. 02, 2019 Rise Set
Actual Time 6:06 AM HST 6:36 PM HST
Civil Twilight 5:44 AM HST 6:58 PM HST
Nautical Twilight 5:18 AM HST 7:24 PM HST
Astronomical Twilight 4:52 AM HST 7:50 PM HST
Moon 9:34 AM HST (9/2) 9:37 PM HST (9/2)
Length of Visible Light 13h 13m
Length of Day
12h 29m
Waxing Crescent, 17% of the Moon is Illuminated
Sep 2
Waxing Crescent
Sep 5
First Quarter
Sep 13
Full
Sep 21
Last Quarter
Sep 28
New

Hourly Weather History & Observations

Time (HST) Temp. Dew Point Humidity Pressure Visibility Wind Dir Wind Speed Gust Speed Precip Events Conditions
12:56 AM 55.0 °F 50.0 °F 83% 29.94 in 10.0 mi SE 3.5 mph - N/A   Clear
1:56 AM 52.9 °F 49.1 °F 87% 29.95 in 10.0 mi Calm Calm - N/A   Clear
2:56 AM 53.2 °F 48.7 °F 85% 29.96 in 10.0 mi SE 3.5 mph - N/A   Clear
3:56 AM 52.2 °F 48.4 °F 87% 29.96 in 10.0 mi South 4.6 mph - N/A   Clear
4:56 AM 52.0 °F 47.5 °F 85% 29.97 in 10.0 mi ESE 4.6 mph - N/A   Clear
5:56 AM 52.2 °F 47.1 °F 83% 29.98 in 10.0 mi SE 4.6 mph - N/A   Clear
6:56 AM 56.3 °F 47.8 °F 73% 29.99 in 10.0 mi ESE 3.5 mph - N/A   Clear
7:56 AM 62.8 °F 52.0 °F 68% 29.97 in 10.0 mi SSE 6.9 mph - N/A   Partly Cloudy
8:56 AM 69.1 °F 52.5 °F 55% 29.95 in 10.0 mi South 4.6 mph - N/A   Clear
9:56 AM 72.3 °F 52.2 °F 49% 29.95 in 10.0 mi South 3.5 mph - N/A   Clear
10:56 AM 71.8 °F 55.8 °F 57% 29.95 in 10.0 mi West 5.8 mph - N/A   Mostly Cloudy
11:56 AM 72.1 °F 56.7 °F 58% 29.95 in 10.0 mi West 9.2 mph - N/A   Scattered Clouds
12:41 PM 71.6 °F 55.4 °F 57% 29.93 in 10.0 mi West 8.1 mph - N/A   Mostly Cloudy
12:46 PM 73.4 °F 57.2 °F 57% 29.92 in 10.0 mi WSW 9.2 mph - N/A   Scattered Clouds
12:56 PM 75.2 °F 55.8 °F 51% 29.91 in 10.0 mi WSW 5.8 mph - N/A   Scattered Clouds
1:56 PM 73.6 °F 57.6 °F 57% 29.91 in 10.0 mi WSW 10.4 mph - N/A   Scattered Clouds
2:51 PM 66.2 °F 53.6 °F 64% 29.93 in 10.0 mi SW 3.5 mph - N/A   Mostly Cloudy
2:56 PM 66.6 °F 53.8 °F 63% 29.93 in 10.0 mi Calm Calm - N/A   Overcast
3:03 PM 66.2 °F 53.6 °F 64% 29.93 in 10.0 mi SSW 4.6 mph - N/A Rain Light Rain Showers
3:08 PM 64.4 °F 57.2 °F 77% 29.93 in 1.4 mi SSE 3.5 mph - N/A Rain Heavy Rain Showers
3:13 PM 60.8 °F 59.0 °F 94% 29.94 in 0.5 mi SSW 4.6 mph - N/A Rain Heavy Rain Showers
3:23 PM 60.8 °F 59.0 °F 94% 29.94 in 2.8 mi Calm Calm - N/A Rain Heavy Rain Showers
3:28 PM 60.8 °F 59.0 °F 94% 29.94 in 7.0 mi SE 3.5 mph - N/A Rain Rain Showers
3:56 PM 61.0 °F 60.4 °F 98% 29.93 in 10.0 mi ESE 4.6 mph - N/A Rain Light Rain Showers
4:17 PM 62.6 °F 60.8 °F 94% 29.92 in 10.0 mi South 3.5 mph - N/A   Mostly Cloudy
4:22 PM 62.6 °F 60.8 °F 94% 29.93 in 10.0 mi Calm Calm - N/A   Mostly Cloudy
4:56 PM 62.2 °F 60.1 °F 93% 29.94 in 10.0 mi SSE 6.9 mph - N/A   Overcast
4:57 PM 62.6 °F 60.8 °F 94% 29.94 in 10.0 mi SSE 6.9 mph - N/A Rain Light Rain Showers
5:12 PM 62.6 °F 60.8 °F 94% 29.94 in 10.0 mi SE 4.6 mph - N/A   Overcast
5:37 PM 62.6 °F 59.0 °F 88% 29.94 in 10.0 mi SE 3.5 mph - N/A   Overcast
6:56 PM 57.9 °F 57.0 °F 97% 29.96 in 10.0 mi SE 4.6 mph - N/A   Partly Cloudy
7:56 PM 56.5 °F 55.6 °F 97% 29.94 in 10.0 mi Calm Calm - N/A   Partly Cloudy
8:56 PM 53.6 °F 48.6 °F 83% 29.96 in 10.0 mi SE 4.6 mph - N/A   Clear
9:56 PM 51.8 °F 43.9 °F 74% 29.95 in 10.0 mi SE 5.8 mph - N/A   Clear
10:56 PM 52.2 °F 41.5 °F 67% 29.96 in 10.0 mi ESE 3.5 mph - N/A   Clear
11:56 PM 50.5 °F 45.7 °F 83% 29.94 in 10.0 mi SE 4.6 mph - N/A   Clear